Location: Appeville
(49.3218°N, 1.3427°W)
Time: 06:08:18
(UTC+00:00)

Meteor 1-14 Rocket - Pass Details

Date: 08 December 2019
Orbit: 833 x 920 km, 81.3° (Epoch: 22 January)

Event Time Altitude Azimuth Distance (km) Brightness Sun altitude
Rises 05:53:55 0° 187° (S) 3,513 7.5 -17.5°
Reaches altitude 10° 05:56:21 10° 187° (S) 2,585 6.8 -17.1°
Maximum altitude 06:02:16 84° 100° (E) 929 4.4 -16.2°
Drops below altitude 10° 06:08:18 10° 13° (NNE) 2,628 6.7 -15.2°
Sets 06:10:47 0° 13° (NNE) 3,574 7.4 -14.9°
